EHI
0 0 0 0 0 0 0 0 0 0 0 0 0 0 0 0 0 0 0 0 0 0 0 0 0 0 0 0 0 0 0 0 0 0 0 0 0 0 0 0 0 0 0
0 0 0 0 0 0 0 0 0 0 0 0 0 0 0 0 0 0 0 0 0 0 0 0 0 0 0 0 0 0 0 0 0 0 0 0 0 0 0 0 0 0 0
0 0 0 0 0 0 0 0 0 0 0 0 0 0 0 0 0 0 0 0 0 0 0 0 0 0 0 0 0 0 0 0 0 0 0 0 0 0 0 0 0 0 0
0 0 0 0 0 0 0 0 0 0 0 0 0 0 0 0 0 0 0 0 0 0 0 0 0 0 0 0 0 0 0 0 0 0 0 0 0 0 0 0 0 0 0
0 0 0 0 0 0 0 0 0 0 0 0 0 0 0 0 0 0 0 0 0 0 0 0 0 0 0 0 0 0 0 0 0 0 0 0 0 0 0 0 0 0 0
0 0 0 0 0 0 0 0 0 0 0 0 0 0 0 0 0 0 0 0 0 0 0 0 0 0 0 0 0 0 0 0 0 0 0 0 0 0 0 0 0 0 0
0 0 0 0 0 0 0 0 0 0 0 0 0 0 0 0 0 0 0 0 0 0 0 0 0 0 0 0 0 0 0 0 0 0 0 0 0 0 0 0 0 0 0
0 0 0 0 0 0 0 0 0 0 0 0 0 0 0 0 0 0 0 0 0 0 0 0 0 0 0 0 0 0 0 0 0 0 0 0 0 0 0 0 0 0 0
0 0 0 0 0 0 0 0 0 0 0 0 0 0 0 0 0 0 0 0 0 0 0 0 0 0 0 0 0 0 0 0 0 0 0 0 0 0 0 0 0 0 0
0 0 0 0 0 0 0 0 0 0 0 0 0 0 0 0 0 0 0 0 0 0 0 0 0 0 0 0 0 0 0 0 0 0 0 0 0 0 0 0 0 0 0
0 0 0 0 0 0 0 0 0 0 0 0 0 0 0 0 0 0 0 0 0 0 0 0 0 0 0 0 0 0 0 0 0 0 0 0 0 0 0 0 0 0 0
0 0 0 0 0 0 0 0 0 0 0 0 0 0 0 0 0 0 0 0 0 0 0 0 0 0 0 0 0 0 0 0 0 0 0 0 0 0 0 0 0 0 0
0 0 0 0 0 0 0 0 0 0 0 0 0 0 0 0 0 0 0 0 0 0 0 0 0 0 0 0 0 0 0 0 0 0 0 0 0 0 0 0 0 0 0
0 0 0 0 0 0 0 0 0 0 0 0 0 0 0 0 0 0 0 0 0 0 0 0 0 0 0 0 0 0 0 0 0 0 0 0 0 0 0 0 0 0 0
0 0 0 0 0 0 0 0 0 0 0 0 0 0 0 0 0 0 0 0 0 0 0 0 0 0 0 0 0 0 0 0 0 0 0 0 0 0 0 0 0 0 0
0 0 0 0 0 0 0 0 0 0 0 0 0 0 0 0 0 0 0 0 0 0 0 0 0 0 0 0 0 0 0 0 0 0 0 0 0 0 0 0 0 0 0
0 0 0 0 0 0 0 0 0 0 0 0 0 0 0 0 0 0 0 0 0 0 0 0 0 0 0 0 0 0 0 0 0 0 0 0 0 0 0 0 0 0 0
0 0 0 0 0 0 0 0 0 0 0 0 0 0 0 0 0 0 0 0 0 0 0 0 0 0 0 0 0 0 0 0 0 0 0 0 0 0 0 0 0 0 0
0 0 0 0 0 0 0 0 0 0 0 0 0 0 0 0 0 0 0 0 0 0 0 0 0 0 0 0 0 0 0 0 0 0 0 0 0 0 0 0 0 0 0
0 0 0 0 0 0 0 0 0 0 0 0 0 0 0 0 0 0 0 0 0 0 0 0 0 0 0 0 0 0 0 0 0 0 0 0 0 0 0 0 0 0 0
0 0 0 0 0 0 0 0 0 0 0 0 0 0 0 0 0 0 0 0 0 0 0 0 0 0 0 0 0 0 0 0 0 0 0 0 0 0 0 0 0 0 0
0 0 0 0 0 0 0 0 0 0 0 0 0 0 0 0 0 0 0 0 0 0 0 0 0 0 0 0 0 0 0 0 0 0 0 0 0 0 0 0 0 0 0
0 0 0 0 0 0 0 0 0 0 0 0 0 0 0 0 0 0 0 0 0 0 0 0 0 0 0 0 0 0 0 0 0 0 0 0 0 0 0 0 0 0 0
0 0 0 0 0 0 0 0 0 0 0 0 0 0 0 0 0 0 0 0 0 0 0 0 0 0 0 0 0 0 0 0 0 0 0 0 0 0 0 0 0 0 0
0 0 0 0 0 0 0 0 0 0 0 0 0 0 0 0 0 0 0 0 0 0 0 0 0 0 0 0 0 0 0 0 0 0 0 0 0 0 0 0 0 0 0
0 0 0 0 0 0 0 0 0 0 0 0 0 0 0 0 0 0 0 0 0 0 0 0 0 0 0 0 0 0 0 0 0 0 0 0 0 0 0 0 0 0 0
Wind_Speed
10 9 8 8 8 9 8 8 8 8 9 9 8 7 6 6 5 4 4 4 5 4 4 5 6 5 4 4 4 4 5 5 10 9 5 5 6 7 8 6 7 7 8
9 9 8 8 8 8 8 8 9 9 8 8 7 7 6 6 5 5 5 5 5 5 5 5 6 5 5 5 4 5 6 6 8 13 7 5 6 7 7 8 8 8 7
9 9 9 9 9 9 9 8 9 8 8 7 7 7 6 6 5 5 5 4 5 5 5 5 6 6 6 5 6 6 5 6 6 8 9 5 5 6 7 8 9 7 9
9 9 9 9 9 9 8 8 8 8 8 7 7 6 6 5 5 5 4 4 4 5 5 6 6 7 8 7 7 7 6 6 6 7 9 7 6 6 6 7 8 5 7
9 9 9 8 8 8 8 8 8 8 7 7 6 5 5 5 5 6 5 5 5 6 6 7 8 10 13 12 9 7 6 6 6 7 9 9 7 6 6 6 9 7 7
9 9 8 8 8 8 8 8 8 7 7 6 6 6 6 5 8 10 7 5 5 6 7 7 8 10 14 19 20 18 14 9 7 7 8 10 10 8 7 7 8 9 8
8 8 8 9 9 8 8 8 8 7 6 6 6 6 6 6 10 11 11 6 6 6 7 7 8 8 13 8 13 18 15 18 18 12 10 10 10 9 9 9 8 10 10
8 8 8 8 8 8 8 7 7 5 6 5 5 6 5 7 10 11 11 7 6 7 7 8 8 8 8 10 8 7 7 8 11 9 9 10 11 10 10 11 12 11 9
8 8 8 8 8 8 8 7 5 5 5 5 5 5 5 6 9 10 10 4 5 7 7 7 8 8 14 18 11 8 8 8 13 19 20 19 22 23 18 9 7 8 9
8 7 7 8 8 8 7 6 5 4 4 4 4 4 5 5 8 10 10 4 5 6 6 6 11 13 17 19 10 7 10 9 8 10 12 14 13 14 19 10 6 7 8
7 7 7 7 7 6 5 4 4 4 4 4 4 4 4 6 8 11 11 5 5 5 5 5 6 15 18 19 17 9 14 15 9 8 7 7 6 6 6 6 5 5 7
7 7 6 6 5 5 5 4 4 4 4 3 3 3 3 4 6 9 12 12 10 6 6 5 7 16 19 20 16 17 22 19 7 6 6 5 5 4 4 5 5 5 6
8 7 6 6 5 5 5 4 4 3 3 3 3 3 4 3 5 11 13 14 15 8 6 13 16 19 19 13 16 21 18 8 5 6 6 5 4 4 4 4 4 5 5
8 6 6 5 4 4 3 3 3 3 3 3 3 4 4 3 3 3 4 6 10 9 8 12 18 18 15 15 14 11 6 6 6 6 5 4 3 3 4 3 4 3 4
7 6 5 4 4 3 3 3 3 4 5 4 4 4 4 5 7 11 7 5 4 6 8 5 5 5 5 5 5 5 4 4 5 3 3 4 3 4 4 3 3 3 4
6 5 4 3 3 2 2 1 2 4 6 8 8 8 7 10 14 14 15 16 16 17 12 6 6 6 6 6 5 5 4 4 4 4 3 3 3 4 4 4 3 4 4
6 5 3 3 3 2 2 2 2 3 6 8 10 11 12 13 15 15 16 17 17 16 8 6 7 6 6 5 5 4 4 4 3 3 4 4 4 4 4 4 4 4 4
5 5 4 3 2 2 2 2 3 3 3 4 7 11 14 15 15 16 17 14 8 7 5 6 7 6 6 5 5 4 4 4 3 3 4 4 4 3 4 4 4 4 4
4 3 3 2 2 2 2 2 3 3 4 4 4 6 11 13 15 15 14 6 6 6 6 6 6 6 5 5 4 4 4 4 4 4 4 4 3 3 4 4 5 8 6
3 4 3 2 2 2 2 2 3 3 4 4 5 5 5 5 5 6 5 5 6 6 6 6 6 6 5 5 4 4 4 4 4 4 4 4 3 3 4 5 4 4 4
3 3 3 2 2 2 2 3 3 4 4 5 5 7 12 6 5 6 5 5 6 6 6 6 5 5 5 4 4 5 5 5 4 4 4 4 3 3 3 4 4 4 4
2 2 2 2 2 2 3 3 3 4 5 6 5 7 14 8 5 6 6 6 6 5 5 5 5 5 4 4 4 5 5 5 4 4 4 4 3 4 3 4 4 3 4
2 2 2 2 2 5 4 3 4 4 5 6 6 6 6 6 6 6 7 6 5 5 5 5 5 5 5 5 5 5 6 5 5 4 5 4 4 4 4 4 4 4 4
2 2 2 2 2 3 3 4 4 5 5 6 6 6 6 6 7 8 7 6 6 6 5 5 6 7 8 6 5 5 5 6 6 5 6 6 5 4 4 4 4 5 4
1 1 2 2 3 3 4 5 5 5 6 7 7 7 7 7 7 7 7 6 7 7 7 7 6 7 8 9 8 7 11 15 14 8 6 6 7 6 6 6 5 5 4
1 2 2 2 3 4 4 5 6 6 7 7 7 7 7 7 7 7 7 6 6 7 7 6 7 8 9 8 9 13 16 17 17 16 8 6 7 7 6 6 7 6 6
Wind_Direction
174 172 165 161 156 153 156 156 152 150 153 159 165 167 171 176 180 186 198 203 214 228 231 234 242 241 243 242 240 240 242 243 269 277 266 280 290 295 300 297 295 293 296
173 166 163 157 153 156 157 155 152 155 158 162 165 169 176 182 186 193 207 211 218 230 238 243 251 253 251 248 245 247 249 247 263 280 283 278 279 284 285 287 294 296 292
168 165 163 162 162 163 161 158 157 158 160 162 165 174 182 186 192 201 207 216 224 234 241 246 253 255 258 255 252 253 255 261 259 276 286 282 280 282 287 287 284 285 288
166 167 169 170 168 165 161 159 160 160 162 167 171 177 183 187 195 205 209 219 235 245 249 250 253 251 254 255 257 255 257 263 266 275 283 286 282 280 281 287 290 277 281
166 169 171 166 161 159 158 159 158 160 165 166 170 179 186 191 201 203 209 220 233 247 253 252 254 256 260 265 266 258 252 258 265 273 280 286 286 287 282 282 290 288 275
167 169 163 160 159 160 160 159 159 162 165 168 178 185 195 207 215 219 218 220 231 242 254 258 261 266 271 275 278 278 274 271 272 271 279 282 285 282 282 283 287 291 291
165 163 163 162 162 162 161 160 166 169 169 177 185 190 203 216 223 232 235 233 235 244 253 262 270 271 279 271 277 281 281 281 281 280 279 279 282 282 281 281 275 276 280
162 163 162 161 160 158 161 167 169 168 174 181 190 197 207 222 228 238 243 239 240 248 253 258 264 268 267 275 267 263 258 266 273 277 269 271 273 273 265 272 276 279 276
162 163 161 159 158 161 168 170 168 169 180 187 190 198 211 229 233 242 247 235 244 252 255 260 267 269 279 287 285 278 276 271 280 282 282 285 286 290 291 288 286 290 291
161 156 153 154 158 164 167 167 166 170 181 183 197 205 213 229 241 247 249 236 247 256 258 260 272 281 288 291 286 278 280 278 275 279 280 285 287 286 290 285 277 281 287
138 137 141 146 152 155 157 160 161 165 171 187 206 218 223 234 247 251 255 249 242 256 262 261 264 285 289 290 290 281 281 287 281 275 275 274 274 269 269 267 258 258 274
129 133 136 140 144 147 151 158 160 162 176 199 215 235 238 242 249 259 266 268 271 266 266 266 272 287 290 291 292 289 291 295 288 282 278 273 270 270 271 273 269 257 251
128 131 133 134 139 147 154 160 162 167 181 205 215 235 248 244 256 266 273 277 280 279 273 281 288 292 295 294 291 293 295 291 282 279 277 272 263 267 278 282 276 269 267
129 130 133 136 141 144 148 159 168 180 193 210 223 239 252 256 256 258 259 270 277 280 281 283 289 291 290 288 290 291 281 272 277 270 269 271 280 286 285 279 279 279 281
128 130 133 137 145 151 160 177 187 200 201 213 222 225 241 258 259 270 278 271 266 266 285 276 272 276 270 269 270 267 262 274 286 277 276 280 284 292 288 282 275 277 274
133 135 136 139 142 147 159 209 238 239 249 252 255 257 259 266 279 283 285 287 290 291 292 281 279 276 275 275 274 272 266 265 265 268 273 277 281 288 287 285 279 274 276
136 139 138 144 153 164 173 193 254 286 273 269 270 274 276 281 285 287 289 291 291 294 286 276 276 276 274 271 269 268 268 266 263 264 267 268 269 275 285 287 283 279 276
128 136 142 154 164 177 194 210 222 245 271 275 273 278 283 285 287 289 291 295 288 283 265 269 272 272 271 267 265 264 264 268 266 261 262 262 261 263 276 281 281 275 277
131 138 143 151 167 190 209 225 239 249 259 271 276 280 282 287 289 288 292 279 272 270 266 267 268 269 267 265 262 259 257 259 261 259 258 257 255 255 265 275 278 285 286
132 149 152 159 181 208 224 237 249 256 263 269 272 274 281 283 276 278 270 261 265 268 267 266 266 264 263 260 256 255 256 259 258 253 252 252 248 248 259 271 272 274 269
139 158 175 184 206 222 232 242 250 256 262 267 268 277 288 287 276 274 270 266 264 267 267 267 265 264 260 255 253 254 257 258 248 241 242 245 242 245 252 262 268 269 268
142 162 183 205 225 236 250 247 253 261 267 273 277 285 291 287 276 274 272 271 264 260 260 262 262 257 252 250 252 255 258 256 248 240 239 239 240 246 250 257 263 266 268
150 180 216 235 242 267 277 265 265 267 269 272 277 280 279 273 272 273 274 272 267 264 261 259 263 261 253 248 244 245 250 251 241 233 237 238 237 243 247 250 255 262 263
174 206 232 250 257 260 267 270 269 270 272 275 276 277 276 274 273 275 275 273 269 267 262 259 259 261 259 256 251 245 243 245 239 230 227 231 233 236 243 245 247 249 255
201 225 245 255 262 266 270 272 273 275 278 281 281 281 280 279 277 278 276 274 274 273 271 267 263 263 261 260 258 254 261 265 264 248 222 222 227 228 235 241 242 241 246
233 248 257 261 263 266 269 274 277 280 280 282 283 282 282 281 280 280 280 277 276 275 274 270 264 262 260 260 259 265 270 270 268 263 246 224 223 227 228 234 233 233 236